CZ-6A DEB, 60713

Orbit data source: Space-Track

CZ-6A DEB, 60713 is space debris in LEO originally from a launch on Tue, 06 Aug 2024 UTC launched from the Taiyaun Space Center, China (TSC). Debris objects in space refer to the collection of defunct objects orbiting the Earth. Examples of debris include non-operational satellites, rocket bodies, and fragments generated from explosions, collisions, or faulty payload assembly.

Loading next visibility...
Identifier
60713, 2024-140DS
Orbit
LEO
Country
Flag of CNCN / PRC
Related business
Manufacturer
SAST
Mission
Spacecraft
Bus & Motor
Unknown
Mass
Unknown
Launch date (UTC)
2024-08-06 (1 year ago)
Launch vehicle
Unknown
Launch site
Taiyaun Space Center, China (TSC)
Object type
Payload
Rocket body
Debris
Shape & HBR
Unknown shape, 0.3 m
Radar Cross Section
Medium (>0.1 m² and <1 m²)

Expand to show TLE details & history
Last TLE update: 19 hours ago

TLE from 19 hours ago
0 CZ-6A DEB
1 60713U 24140DS  25354.27315008  .00000180  00000-0  78537-4 0  9996
2 60713  89.0165 295.8351 0049335  29.9420 330.4574 14.18947377 70229
Epoch: 2025-12-20T06:33Z
TLE epoch observation values (Epoch: 2025-12-20T06:33:20.166Z)
Latitude
-0.0001°
Longitude
108.39875°
Altitude
801.07 km
Speed
7.469 km/s
True Right ascension
19h 43m 20s
True Declination
0° 00' 00"
Sunlit
Object was in daylight at epoch
Visualization orbit readout
Latitude
Unknown
Longitude
Unknown
Altitude
Unknown
Speed
Unknown
Apparent Right ascension
Unknown
Apparent Declination
Unknown
Sunlit
N/A
Visualization observer readout
Local Sidereal Time
00:58:24
Azimuth
Unknown
Elevation
Unknown
Doppler factor
Unknown
Orbital elements
Apogee altitude
861.408 km
Perigee altitude
790.326 km
Semi-major axis
7,204.004 km
Eccentricity
0.00493
Inclination
89.0165°
RAAN
295.8351°
Arg. of periapsis
29.942°
True anomaly
330.17715°
Mean anomaly
330.4574°
Eccentric anomaly
330.31742°
Mean motion
3.54962 °/min
Orbital period
101.42 mins
BSTAR
0.000078537
Loading maneuver chart data...
Computing Atmospheric mass density...
Loading historical data...
Loading historical data...
Loading historical data...
Loading historical data...
Loading historical data...
Loading historical data...
Loading historical data...

Documentation

Showing up to 5 results
|